Погода в Аспиндзе

Погода в Аспиндзе : погода сейчас, прогноз погоды и архив. Всё, что Вы хотите узнать о погоде в Аспиндзе!

Поиск расширенной информации на нашем сайте:

Полезная информация: как избавиться от целлюлита

Другие новости

Новости СМИ2

Главная страница сайта

Новости сайта

02.10.2013

Напоминаем, что на нашем новом сайте вы можете получить высокодетализированные прогнозы погоды по пунктам России, СНГ и мира (включающие важные для авиации метеовеличины, такие как направление и скорость ветра, видимость, явления погоды, количество и форма облачности, нижняя и верхняя граница облачности), а также ознакомиться с разнообразными материалами по авиационной метеорологии и подборкой полезных ссылок на эту тему.

Сайт Метеоцентр.Азия посвящён разработке технологий оптимизации авиаметеорологического обслуживания, включая проектирование и перспективное создание нескольких автоматизированных авиаметеорологических систем:
- система выпуска высокодетальных прогностических карт явлений погоды для нижнего воздушного пространства по России и ближнему зарубежью;
- система верификации прогнозов TAF (выпускаемых синоптиками официальных АМСГ РФ и ближнего зарубежья) и AUTOTAF (выпускаемых сайтом Метеоцентр.Азия) - выявление ошибок, онлайн-сопоставление с фактической погодой METAR, автоматическое внесение коррективов в прогнозы при резком отклонении фактической погоды от прогноза, подсчёт оправдываемости прогнозов по элементам и в целом;
- система обработки, анализа и отображения авиаметеорологической информации для применения провайдерами метеорологической информации.

Рекомендуем: Например, при воспроизведении рекламные экраны в спб состоянии "покоя"

Погода в Аспиндзе - сегодня

Время (UTC), дата Ветер
(°,м/с) 
Видим.   Явления Облачность Т
(°С)
Тd
(°С)
f(%) Тe
(°С)
Pmin
(гПа)
dP
(гПа)
Po
(мм)
O2
(г/м3)
Тmin Tmax R s Состояние
почвы
06 18.01.17 тихо ()   20000 м    8/8 1000 м верхняя 
[Sc|Ci fib]
-8.3 -9.7 90 -8  1033.2  683  285  -11.6         
09 18.01.17 тихо ()   20000 м    9/9 1000 м 
[Sc]
-1.4 -6.2 70 -1  1028.6  -1  682  277           
12 18.01.17 тихо ()   20000 м    9/9 1000 м 
[Sc]
+0.4 -5.4 65 1025.4  -2.1  680  274           
15 18.01.17 тихо ()   4000 м    9/9 1000 м 
[Sc]
+0 -4.8 70 1026.4  0.7  681  275    +1.7       
18 18.01.17 тихо ()   4000 м    10/10 1000 м 
[Sc]
-2 -4.8 81 -2  1028  0.5  681  277    +1.7       
21 18.01.17 тихо ()   4000 м    9/9 1000 м 
[Sc]
-3.6 -5.8 85 -4  1029.1  0.4  682  279           
00 19.01.17 тихо ()   4000 м    9/9 1000 м 
[Sc]
-2.9 -4.9 86 -3  1028.9  682  278           
03 19.01.17 тихо ()   4000 м    10/10 600 м 
[Frnb|Ns]
-2.9 -3.6 95 -3  1027.5  -1.4  681  277         
06 19.01.17 тихо ()   10 км  снег  10/10 600 м 
[Frnb|Ns]
-2.2 -2.5 98 -2  1028.5  1.4  682  277  -4.4         
09 19.01.17 тихо ()   10 км  слаб. снег  10/10 600 м 
[Frnb|Ns]
+0.2 -0.6 94 1027.6  0.3  682  274           
12 19.01.17 тихо ()   10 км  {снег}  9/9 600 м средняя 
[Frnb|As op]
+0.4 -1.9 85 1028.1  0.4  682  275           
18 19.01.17 тихо ()   4000 м    10/10 600 м 
[Frnb|Ns]
-2.2 -2.5 98 -2  1028.7  0.5  682  277    +1.8     
21 19.01.17 тихо ()   4000 м    10/10 600 м 
[Frnb|Ns]
-2.3 -2.3 100 -2  1028.7  682  277           
00 20.01.17 тихо ()   4000 м    10/10 600 м 
[Frnb|Ns]
-2.2 -2.2 100 -2  1030.3  0.9  683  277           
03 20.01.17 тихо ()   4000 м  слаб. снег  10/10 600 м 
[Frnb|Ns]
-2.1 -2.1 100 -2  1028.9  -0.6  682  277      0.4   
06 20.01.17 тихо ()   4000 м  слаб. снег  10/10 600 м 
[Frnb|Ns]
-1.8 -2 99 -2  1029.8  0.9  683  277  -3.5    0.4     
12 20.01.17 тихо ()   4000 м  слаб. снег  10/10 600 м 
[Frnb|Ns]
+1 -0.1 92 +1  1026  -2.4  681  273           
18 20.01.17 тихо ()   4000 м  слаб. снег  10/10 600 м 
[Frnb|Ns]
-1 -1.2 99 -1  1027.7  0.5  682  276         
21 20.01.17 тихо ()   4000 м  слаб. снег  10/10 600 м 
[Frnb|Ns]
-1.6 -1.6 100 -2  1028.9  0.7  682  276           
00 21.01.17 тихо ()   4000 м  {снег}  10/10 1000 м 
[Sc]
-1.6 -2.5 94 -2  1029.3  0.1  682  277           
03 21.01.17 тихо ()   4000 м    10/10 1000 м 
[Sc]
-4.7 -4.7 100 -5  1030.4  682  280      11   
06 21.01.17 тихо ()   0500 м  туман  10/10 1000 м 
[Sc]
-3.7 -3.9 99 -4  1029.9  -0.8  682  279  -6.5       
09 21.01.17 тихо ()   20000 м    9/9 1000 м 
[Sc]
+0 -3.4 78 1026.4  -0.7  681  275           
12 21.01.17 тихо ()   20000 м    10/10 1000 м 
[Sc]
+0.8 -6.1 60 +1  1025.9  -0.2  681  274           
18 21.01.17 тихо ()   4000 м    ясно 
[Sc]
-4.4 -9.1 70 -4  1029.3  0.8  681  280    +1.2       
Время (UTC), дата Ветер
(°,м/с) 
Видим.   Явления Облачность Т
(°С)
Тd
(°С)
f(%) Тe
(°С)
Pmin
(гПа)
dP
(гПа)
Po
(мм)
O2
(г/м3)
Тmin Tmax R s Состояние
почвы

Для получения пояснительной информации подведите курсор к названию столбца.

ПОГОДА в Аспиндзе - архив

Всё, что Вы хотите узнать о погоде в Аспиндзе - удобно и подробно!

Выберите нужную дату (начиная с 1 января 2015* года) и нажмите кнопку "Найти".
Будут отображены архивные сводки погоды по пункту Аспиндза, начиная с указанной даты.


Отображать данные в формате CSV (для использования в таблицах Excel)


Внимание! Наш архив погоды предназначен исключительно для личного некоммерческого использования в познавательных целях. Если Вам необходимы официальные справки о состоянии погоды (для производственных, юридических, коммерческих и т.п. целей), обращайтесь в органы Росгидромета.

*Примечание: данная дата относится к архиву по метеостанциям СССР (Россия, СНГ, Балтия).
Архив по метеостанциям Зарубежной Европы и Азии (кроме Китая) хранится 10 дней, по другим регионам земного шара (Китай, Африка, Америка, Австралия, Океания) - 1 день.

Аспиндза - район местоположения метеостанции


Название, широта, долгота, высота метеостанции:
Аспиндза 41.6°ш. 43.2°д. 983 м над ур. моря [Грузия]

Дополнительная информация

В oтличие oт бoльшинства пoгoдных сайтoв мы публикуем пoдрoбную метеoинфoрмацию в детальнoм прoфессиoнальнoм фoрмате.

Характеристики температуры и влажнoсти вoздуха измеряются на высoте 2 м в тени вдали oт зданий и деревьев.
Скoрoсть ветра измеряется на высoте 10 м (на урoвне рoста челoвека скoрoсть ветра ниже в 1.5-2 раза). Если метеoстанция нахoдится в гoрoде или в лесу, тo скoрoсть ветра занижена на 2-4 м/с пo сравнению с oткрытым местoм. Скoрoсть ветра над акватoриями крупных рек и oзёр, а также на вершинах хoлмoв на 2-5 м/с выше, чем в oбычных услoвиях.
Атмoсфернoе давление в разных тoчках местнoсти мoжет значительнo oтличаться oт давления на метеoстанции, в зависимoсти oт услoвий рельефа (при пoдъёме на 10 м давление пoнижается примернo на 1 мм рт.ст.).